[[{"header":{"parameterUnit":"m.s-1","parameterCategory":1,"la1":30.2991,"la2":30.254,"lo1":-89.0895,"lo2":-89.0444,"dy":0.0017,"dx":0.0017,"nx":28,"ny":28,"refTime":"2025-04-02T09:00:00:Z","depth":0,"parameterNumber":2,"parameterNumberName":"U-component_of_WINDS"},"data":[0,0,0,0,0,0,0,0,0,0,0,0,0,0,0,0,0,0,0,0,0,0,0,0,0,0,0,0,0,0,0,0,0,0,0,0,0,0,0,0,0,0,0,0,0,0,0,0,0,0,0,0,0,0,0,0,0,0,-5.4071,-5.4073,0,-5.4215,-5.4216,-5.4218,-5.4235,-5.4234,-5.4232,-5.4231,-5.4377,-5.4382,-5.4387,0,0,0,0,0,0,0,0,0,0,0,0,0,-5.3812,-5.3817,-5.4071,-5.4073,-5.4075,-5.4214,-5.4216,-5.4218,-5.4236,-5.4234,-5.4232,-5.4231,-5.4375,-5.4381,-5.4388,0,0,0,0,0,0,0,0,0,0,0,0,0,-5.3937,-5.3818,-5.4071,-5.41,-5.4104,-5.4214,-5.4216,-5.4219,-5.4236,-5.4234,-5.4232,-5.423,-5.4373,-5.4381,-5.4388,-5.4479,0,0,-5.4412,-5.4416,0,0,0,0,0,0,0,0,-5.393,-5.3946,-5.4094,-5.4098,-5.4103,-5.4205,-5.4179,-5.4306,-5.4236,-5.4186,-5.4231,-5.4229,-5.4321,-5.4333,-5.4365,-5.4485,-5.4492,-5.4413,-5.4418,-5.4421,-5.4423,0,0,0,0,0,0,0,-5.3921,-5.394,-5.4128,-5.4096,-5.4102,-5.4106,-5.4122,-5.4203,-5.4264,-5.419,-5.4192,-5.4208,-5.4323,-5.4357,-5.4368,-5.4494,-5.4413,-5.442,-5.4424,-5.4428,-5.4696,-5.4699,0,0,0,0,0,0,-5.3907,-5.3933,-5.4123,-5.4132,-5.4009,-5.4113,-5.413,-5.4174,-5.4263,-5.4274,-5.421,-5.4209,-5.4345,-5.4359,-5.4374,-5.4484,-5.4421,-5.4428,-5.4433,-5.4694,-5.4697,-5.47,0,0,0,0,0,0,-5.3901,-5.3924,-5.4117,-5.4033,-5.4058,-5.4119,-5.4169,-5.4178,-5.4212,-5.4278,-5.4289,-5.4233,-5.4344,-5.4363,-5.4453,-5.449,-5.4432,-5.4439,-5.4691,-5.4695,-5.4698,-5.4707,0,0,0,0,0,0,-5.3894,-5.3922,-5.3956,-5.4034,-5.4063,-5.4194,-5.4171,-5.4183,-5.4226,-5.4225,-5.4303,-5.4313,-5.4344,-5.4441,-5.446,-5.4499,-5.4445,-5.4688,-5.4693,-5.4697,-5.4703,-5.471,-5.4716,0,0,0,0,0,-5.3885,-5.3953,-5.3958,-5.3981,-5.4107,-5.4196,-5.4212,-5.4246,-5.4228,-5.4264,-5.4307,-5.4311,-5.4483,-5.445,-5.4472,-5.4514,-5.4686,-5.4691,-5.4697,-5.47,-5.4709,-5.4716,0,0,0,0,0,0,-5.3877,-5.3963,-5.397,-5.4065,-5.4123,-5.4199,-5.4244,-5.4254,-5.4317,-5.4314,-5.4353,-5.4371,-5.4459,-5.4496,-5.4457,-5.4606,-5.4583,-5.4593,-5.4578,-5.4587,-5.4593,-5.4581,-5.4451,0,0,0,0,0,-5.3886,-5.3952,-5.4024,-5.4101,-5.413,-5.4182,-5.4222,-5.4243,-5.4304,-5.4329,-5.4378,-5.4437,-5.4505,-5.4548,-5.4614,-5.471,-5.4727,-5.475,-5.4756,-5.4761,-5.4769,-5.4822,-5.4833,-5.4718,-5.4718,-5.4718,0,0,-5.3906,-5.3962,-5.4,-5.41,-5.4148,-5.4214,-5.4202,-5.4273,-5.4322,-5.434,-5.4427,-5.4466,-5.4535,-5.4628,-5.4671,-5.4661,-5.4805,-5.4768,-5.4772,-5.4777,-5.4829,-5.4839,-5.4849,-5.4722,-5.4721,-5.472,0,0,-5.3976,-5.4025,-5.4094,-5.4142,-5.4215,-5.425,-5.4266,-5.4341,-5.4368,-5.4457,-5.4471,-5.4531,-5.4647,-5.4695,-5.4735,-5.4826,-5.4832,-5.4847,-5.4879,-5.493,-5.4939,-5.4947,-5.4978,-5.4989,-5.4855,-5.4855,-5.4855,0,-5.3991,-5.4091,-5.4128,-5.4199,-5.4242,-5.4263,-5.4333,-5.4378,-5.4468,-5.4498,-5.4486,-5.4632,-5.468,-5.4785,-5.4807,-5.4839,-5.4859,-5.4836,-5.4935,-5.4944,-5.4952,-5.4982,-5.4993,-5.4856,-5.4856,-5.4855,-5.4855,0,-5.4106,-5.4176,-5.4223,-5.431,-5.4359,-5.4429,-5.4477,-5.4523,-5.4541,-5.4577,-5.4668,-5.4727,-5.4805,-5.4832,-5.485,-5.494,-5.4931,-5.4927,-5.4904,-5.4963,-5.4992,-5.5004,-5.4857,-5.4857,-5.4857,-5.4856,0,0,-5.4171,-5.4279,-5.4296,-5.4335,-5.4418,-5.4473,-5.4545,-5.4622,-5.466,-5.4723,-5.4783,-5.4882,-5.4879,-5.4924,-5.4948,-5.4994,-5.5061,-5.4984,-5.4986,-5.4994,-5.5162,-5.5163,-5.5175,-5.5067,-5.5069,-5.5071,-5.5156,0,-5.4248,-5.4375,-5.4412,-5.452,-5.4584,-5.4606,-5.4669,-5.4726,-5.4763,-5.4824,-5.4865,-5.4933,-5.4925,-5.4952,-5.4999,-5.5042,-5.5094,-5.5037,-5.5122,-5.5125,-5.5101,-5.5191,-5.5191,-5.5268,-5.5167,-5.5169,-5.5171,0,-5.4354,-5.4419,-5.4533,-5.4608,-5.4637,-5.4692,-5.4766,-5.4824,-5.4891,-5.4914,-5.4966,-5.4987,-5.5063,-5.5038,-5.5143,-5.5103,-5.5141,-5.5168,-5.5172,-5.5179,-5.5149,-5.5197,-5.5293,-5.5304,-5.5189,-5.5188,-5.5186,0,-5.4387,-5.4504,-5.4587,-5.4621,-5.4711,-5.475,-5.4789,-5.4854,-5.4898,-5.4964,-5.4993,-5.5066,-5.5106,-5.5162,-5.5202,-5.5181,-5.5303,-5.5282,-5.5324,-5.5323,-5.5346,-5.5343,-5.5446,-5.5375,-5.5375,-5.5374,-5.5374,0,-5.4468,-5.4536,-5.4603,-5.4654,-5.4732,-5.4774,-5.485,-5.4891,-5.4948,-5.5007,-5.5032,-5.5087,-5.5138,-5.5201,-5.5233,-5.5314,-5.5333,-5.5353,-5.536,-5.5349,-5.5346,-5.5372,-5.5367,-5.5377,-5.5377,-5.5376,-5.5376,0,-5.4517,-5.4565,-5.4656,-5.4736,-5.4757,-5.4811,-5.4878,-5.4929,-5.4968,-5.5042,-5.5062,-5.5123,-5.5198,-5.5245,-5.5339,-5.5361,-5.545,-5.5457,-5.5427,-5.543,-5.5468,-5.5463,-5.5589,-5.5607,-5.5526,-5.5526,-5.5527,0,-5.4563,-5.4617,-5.4702,-5.4743,-5.4783,-5.485,-5.4896,-5.4941,-5.4988,-5.5069,-5.5109,-5.5186,-5.5249,-5.5367,-5.542,-5.5493,-5.55,-5.5539,-5.5511,-5.5498,-5.5498,-5.5493,-5.5498,-5.5543,-5.5543,-5.5544,-5.5544,0,-5.4641,-5.4662,-5.4727,-5.4801,-5.4855,-5.4916,-5.4976,-5.5009,-5.5064,-5.5115,-5.5192,-5.5241,-5.5339,-5.5414,-5.5492,-5.5533,-5.5548,-5.5554,-5.5567,-5.5554,-5.5534,-5.5544,-5.5437,-5.5549,-5.5549,-5.5549,-5.5548,-5.5548,-5.4689,-5.4737,-5.4804,-5.4876,-5.4927,-5.4983,-5.5034,-5.508,-5.5145,-5.5228,-5.5251,-5.5331,-5.5398,-5.5505,-5.5548,-5.5611,-5.5605,-5.5625,-5.5629,-5.5633,-5.5632,-5.5527,-5.5626,-5.5626,-5.5626,-5.5626,-5.5626,0,-5.4765,-5.4811,-5.4877,-5.496,-5.5017,-5.5028,-5.5096,-5.5142,-5.5212,-5.5274,-5.5336,-5.5425,-5.5499,-5.5558,-5.5634,-5.5674,-5.5682,-5.5692,-5.5688,-5.5697,-5.5634,-5.5614,-5.5684,-5.5684,-5.5684,-5.5684,-5.5683,-5.5683,-5.4812,-5.4894,-5.4924,-5.5031,-5.5076,-5.5155,-5.5193,-5.5245,-5.5294,-5.5392,-5.5453,-5.5492,-5.5553,-5.5634,-5.5703,-5.5719,-5.5744,-5.5752,-5.5769,-5.5708,-5.5701,-5.5695,-5.5676,-5.5758,-5.5758,-5.5827,-5.5827,-5.5828]},{"header":{"parameterUnit":"m.s-1","parameterCategory":1,"la1":30.2991,"la2":30.254,"lo1":-89.0895,"lo2":-89.0444,"dy":0.0017,"dx":0.0017,"nx":28,"ny":28,"refTime":"2025-04-02T09:00:00:Z","depth":0,"parameterNumber":3,"parameterNumberName":"V-component_of_WINDS"},"data":[0,0,0,0,0,0,0,0,0,0,0,0,0,0,0,0,0,0,0,0,0,0,0,0,0,0,0,0,0,0,0,0,0,0,0,0,0,0,0,0,0,0,0,0,0,0,0,0,0,0,0,0,0,0,0,0,0,0,4.411,4.411,0,4.4101,4.4101,4.4101,4.4102,4.4102,4.4103,4.4103,4.4092,4.4091,4.4091,0,0,0,0,0,0,0,0,0,0,0,0,0,4.4128,4.4127,4.411,4.411,4.411,4.4101,4.4101,4.4101,4.4102,4.4102,4.4103,4.4103,4.4092,4.4091,4.4091,0,0,0,0,0,0,0,0,0,0,0,0,0,4.4119,4.4127,4.411,4.4109,4.4109,4.4101,4.4101,4.4101,4.4102,4.4102,4.4103,4.4103,4.4092,4.4091,4.4091,4.4082,0,0,4.4089,4.4088,0,0,0,0,0,0,0,0,4.412,4.4119,4.411,4.4109,4.4109,4.4103,4.4103,4.4094,4.4102,4.4105,4.4103,4.4103,4.4095,4.4094,4.4092,4.4081,4.4081,4.4089,4.4088,4.4088,4.4088,0,0,0,0,0,0,0,4.4121,4.4119,4.4106,4.4109,4.4109,4.411,4.4109,4.4102,4.4099,4.4105,4.4105,4.4104,4.4095,4.4093,4.4092,4.4081,4.4089,4.4088,4.4088,4.4087,4.4066,4.4065,0,0,0,0,0,0,4.4121,4.412,4.4107,4.4106,4.4115,4.4109,4.4108,4.4105,4.4099,4.4098,4.4104,4.4104,4.4094,4.4093,4.4091,4.4083,4.4088,4.4087,4.4087,4.4066,4.4066,4.4065,0,0,0,0,0,0,4.4122,4.412,4.4107,4.4113,4.4111,4.4109,4.4105,4.4104,4.4102,4.4098,4.4097,4.4102,4.4094,4.4092,4.4085,4.4082,4.4087,4.4086,4.4066,4.4066,4.4065,4.4064,0,0,0,0,0,0,4.4122,4.412,4.4117,4.4113,4.4111,4.4101,4.4105,4.4104,4.4101,4.4101,4.4096,4.4095,4.4094,4.4086,4.4084,4.4081,4.4086,4.4066,4.4066,4.4066,4.4064,4.4063,4.4063,0,0,0,0,0,4.4123,4.4115,4.4116,4.4115,4.4106,4.41,4.4099,4.4098,4.4101,4.4098,4.4096,4.4096,4.4083,4.4085,4.4083,4.408,4.4066,4.4066,4.4066,4.4064,4.4064,4.4063,0,0,0,0,0,0,4.4117,4.4115,4.4116,4.4107,4.4104,4.4101,4.4096,4.4097,4.4093,4.4093,4.4092,4.4091,4.4084,4.4081,4.4084,4.4073,4.4075,4.4074,4.4075,4.4074,4.4073,4.4074,4.4085,0,0,0,0,0,4.4115,4.4111,4.4109,4.4101,4.41,4.4099,4.4096,4.4096,4.4092,4.4091,4.4088,4.4084,4.408,4.4077,4.4072,4.4064,4.4064,4.4061,4.406,4.406,4.4059,4.4057,4.4056,4.4064,4.4064,4.4064,0,0,4.4111,4.4109,4.4106,4.41,4.4098,4.4094,4.4097,4.4092,4.4089,4.409,4.4083,4.4082,4.4078,4.4071,4.4067,4.4068,4.4057,4.4059,4.4059,4.4059,4.4057,4.4056,4.4055,4.4064,4.4064,4.4064,0,0,4.41,4.4098,4.4092,4.4091,4.4088,4.4088,4.4087,4.4084,4.4083,4.4077,4.4078,4.4075,4.4066,4.4064,4.4062,4.4055,4.4055,4.4053,4.405,4.4048,4.4047,4.4047,4.4046,4.4045,4.4052,4.4052,4.4052,0,4.4094,4.4089,4.4089,4.4085,4.4083,4.4085,4.4081,4.4079,4.4074,4.4073,4.4075,4.4066,4.4063,4.4057,4.4056,4.4053,4.4053,4.4053,4.4048,4.4047,4.4047,4.4045,4.4045,4.4052,4.4052,4.4052,4.4052,0,4.4083,4.4079,4.4075,4.4072,4.407,4.4065,4.4066,4.4064,4.4065,4.4064,4.4059,4.4057,4.4053,4.4051,4.4051,4.4046,4.4047,4.4048,4.405,4.4046,4.4045,4.4044,4.4052,4.4052,4.4052,4.4052,0,0,4.4066,4.4067,4.4065,4.4066,4.4064,4.4061,4.4057,4.4055,4.4054,4.4051,4.4049,4.4044,4.4046,4.4043,4.4043,4.4041,4.4038,4.4043,4.4043,4.4043,4.4034,4.4034,4.4033,4.4039,4.4039,4.4039,4.4035,0,4.4057,4.4051,4.4053,4.4047,4.4044,4.4048,4.4045,4.4044,4.4044,4.4042,4.4043,4.404,4.4041,4.4041,4.4039,4.4039,4.4036,4.4039,4.4037,4.4037,4.4038,4.4032,4.4031,4.4028,4.4034,4.4034,4.4034,0,4.4044,4.4043,4.4038,4.4039,4.4038,4.4036,4.4035,4.4033,4.4033,4.4033,4.4033,4.4034,4.4031,4.4034,4.4031,4.4033,4.4033,4.4033,4.4033,4.4032,4.4035,4.4033,4.4026,4.4026,4.4033,4.4033,4.4033,0,4.4035,4.4032,4.4029,4.4029,4.403,4.4029,4.4029,4.4029,4.4029,4.4028,4.4028,4.4027,4.4026,4.4026,4.4027,4.4029,4.4025,4.4027,4.4026,4.4026,4.4024,4.4024,4.4018,4.4023,4.4023,4.4023,4.4023,0,4.4024,4.4021,4.4025,4.4023,4.402,4.4023,4.402,4.4021,4.4022,4.4021,4.4023,4.4022,4.4024,4.4023,4.4025,4.4023,4.4022,4.4023,4.4024,4.4023,4.4024,4.4023,4.4024,4.4023,4.4023,4.4023,4.4023,0,4.4013,4.4015,4.4013,4.4015,4.4016,4.4014,4.4016,4.4015,4.4017,4.4015,4.4015,4.4018,4.4017,4.4019,4.4018,4.4019,4.4018,4.4018,4.4018,4.4018,4.4018,4.4018,4.4012,4.4012,4.4016,4.4015,4.4015,0,4.4006,4.4004,4.4007,4.4007,4.4008,4.4007,4.4007,4.4011,4.4011,4.4013,4.4011,4.4012,4.4012,4.4012,4.4013,4.4014,4.4015,4.4013,4.4015,4.4015,4.4016,4.4017,4.4017,4.4012,4.4012,4.4012,4.4012,0,4.3994,4.3996,4.3996,4.3998,4.3998,4.3999,4.4001,4.4,4.4004,4.4005,4.4005,4.4006,4.4007,4.4007,4.4009,4.4009,4.4012,4.4012,4.4012,4.4011,4.4012,4.4013,4.4018,4.4011,4.4011,4.4011,4.4011,4.4012,4.3985,4.3984,4.3987,4.3988,4.399,4.3992,4.3992,4.3994,4.3995,4.3997,4.3999,4.4,4.4002,4.4005,4.4006,4.4007,4.4008,4.4007,4.4007,4.4007,4.4008,4.4012,4.4007,4.4007,4.4007,4.4007,4.4007,0,4.3974,4.3977,4.3978,4.3981,4.3982,4.3985,4.3988,4.3989,4.3989,4.3992,4.3993,4.3995,4.3997,4.4,4.4002,4.4002,4.4004,4.4003,4.4003,4.4003,4.4006,4.4006,4.4002,4.4002,4.4002,4.4002,4.4002,4.4002,4.3969,4.3968,4.3971,4.3973,4.3976,4.3977,4.3978,4.3981,4.3983,4.3985,4.3987,4.399,4.3993,4.3996,4.3998,4.3999,4.4,4.3999,4.4,4.4002,4.4003,4.4003,4.4004,4.3999,4.3999,4.3998,4.3998,4.3998]}]]